Location: ??
(35.4627°N, 139.3695°E)
Time: 04:08:15
(UTC+00:00)

FALCON 9 DEB - Pass Details

Date: 25 November 2020
Orbit: 376 x 396 km, 53.0° (Epoch: 20 January)

Event Time Altitude Azimuth Distance (km) Brightness Sun altitude
Exits shadow 19:41:32 38° 163° (SSE) 610 4.0 -21.5°
Maximum altitude 19:42:06 43° 132° (SE) 560 4.0 -21.4°
Drops below altitude 10° 19:45:11 10° 59° (ENE) 1,436 6.4 -20.8°
Sets 19:47:19 0° 52° (NE) 2,302 7.4 -20.3°
